User: anonymous
Location: Unspecified
(0.0000°N, 0.0000°E)
Time: 15:02:32
(UTC+02:00)
Language:

Transit 2A - Orbit

View from above orbital plane
View from above orbital plane
View from above satellite
View from above satellite

Ground track
Ground track

The orbit data is extracted from the following two-line orbital elements,

1 00045U 60007A   14292.75374773  .00000189  00000-0  74991-4 0  2662
2 00045 066.6966 068.5315 0255105 018.8255 081.4333 14.33086334826345
Epoch (UTC): 19 October 2014 18:05:23
Eccentricity: 0.0255105
inclination: 66.6966°
perigee height: 599 km
apogee height: 964 km
right ascension of ascending node: 68.5315°
argument of perigee: 18.8255°
revolutions per day: 14.33086334
mean anomaly at epoch: 81.4333°
orbit number at epoch: 82634

The dashed part of the orbit path shows where the satellite is in the earth's shadow,  

DLR